EDV4812 KSAN-KLAX

Flight info

Callsign EDV4812
Flight time 0h 31m
Altitude 12000
Route CWARD2 SLI
Aircraft ERJ7/L-VGDW/C

Departure

Time 2026-04-23 03:21
Airport San Diego International Airport (KSAN)

Arrival

Time 2026-04-23 03:53
Airport Los Angeles International Airport (KLAX)
Time Latitude Longitude Altitude Speed Heading
2026-04-23 02:54 32.73293 -117.20783 22 ft 0 kts 231°
2026-04-23 03:00 32.73294 -117.20783 22 ft 0 kts 231°
2026-04-23 03:03 32.73299 -117.20776 24 ft 2 kts 230°
2026-04-23 03:03 32.73309 -117.20760 24 ft 2 kts 232°
2026-04-23 03:03 32.73319 -117.20745 26 ft 2 kts 233°
2026-04-23 03:03 32.73329 -117.20729 26 ft 2 kts 236°
2026-04-23 03:04 32.73336 -117.20716 23 ft 1 kts 238°
2026-04-23 03:04 32.73336 -117.20715 22 ft 0 kts 238°
2026-04-23 03:05 32.73333 -117.20729 23 ft 3 kts 279°
2026-04-23 03:05 32.73379 -117.20736 20 ft 10 kts 38°
2026-04-23 03:05 32.73440 -117.20684 20 ft 12 kts 25°
2026-04-23 03:06 32.73512 -117.20642 20 ft 11 kts 28°
2026-04-23 03:06 32.73555 -117.20602 21 ft 13 kts 47°
2026-04-23 03:06 32.73597 -117.20501 18 ft 15 kts 79°
2026-04-23 03:06 32.73601 -117.20414 19 ft 0 kts 97°
2026-04-23 03:09 32.73587 -117.20342 22 ft 13 kts 106°
2026-04-23 03:09 32.73560 -117.20237 27 ft 14 kts 107°
2026-04-23 03:10 32.73529 -117.20108 26 ft 19 kts 105°
2026-04-23 03:10 32.73489 -117.19945 25 ft 22 kts 106°
2026-04-23 03:10 32.73444 -117.19757 27 ft 26 kts 106°
2026-04-23 03:10 32.73393 -117.19552 25 ft 19 kts 106°
2026-04-23 03:11 32.73355 -117.19388 24 ft 23 kts 106°
2026-04-23 03:11 32.73306 -117.19189 22 ft 26 kts 105°
2026-04-23 03:11 32.73255 -117.18981 26 ft 27 kts 106°
2026-04-23 03:11 32.73203 -117.18764 26 ft 28 kts 106°
2026-04-23 03:12 32.73147 -117.18527 22 ft 32 kts 105°
2026-04-23 03:12 32.73086 -117.18288 22 ft 24 kts 106°
2026-04-23 03:12 32.73042 -117.18110 19 ft 16 kts 106°
2026-04-23 03:12 32.73015 -117.17998 18 ft 16 kts 104°
2026-04-23 03:13 32.72993 -117.17894 19 ft 8 kts 110°
2026-04-23 03:13 32.72964 -117.17858 17 ft 8 kts 142°
2026-04-23 03:13 32.72947 -117.17842 19 ft 0 kts 142°
2026-04-23 03:15 32.72946 -117.17842 19 ft 0 kts 142°
2026-04-23 03:15 32.72946 -117.17841 19 ft 0 kts 142°
2026-04-23 03:16 32.72942 -117.17838 20 ft 2 kts 142°
2026-04-23 03:16 32.72923 -117.17819 17 ft 5 kts 133°
2026-04-23 03:16 32.72929 -117.17731 19 ft 7 kts 63°
2026-04-23 03:17 32.72933 -117.17722 18 ft 0 kts 62°
2026-04-23 03:17 32.72948 -117.17686 20 ft 5 kts 68°
2026-04-23 03:17 32.72954 -117.17665 18 ft 0 kts 70°
2026-04-23 03:20 32.72956 -117.17660 19 ft 6 kts 70°
2026-04-23 03:20 32.72994 -117.17607 22 ft 8 kts
2026-04-23 03:20 32.73037 -117.17652 19 ft 10 kts 288°
2026-04-23 03:21 32.73052 -117.17715 19 ft 28 kts 286°
2026-04-23 03:21 32.73192 -117.18294 24 ft 115 kts 286°
2026-04-23 03:21 32.73472 -117.19462 170 ft 170 kts 287°
2026-04-23 03:21 32.73831 -117.20861 709 ft 181 kts 289°
2026-04-23 03:22 32.74217 -117.22309 1253 ft 181 kts 292°
2026-04-23 03:22 32.74947 -117.23491 1822 ft 179 kts 320°
2026-04-23 03:22 32.75847 -117.24516 2290 ft 189 kts 314°
2026-04-23 03:22 32.76813 -117.25717 2627 ft 209 kts 315°
2026-04-23 03:23 32.77853 -117.26979 3134 ft 218 kts 315°
2026-04-23 03:23 32.78937 -117.28287 3684 ft 225 kts 314°
2026-04-23 03:23 32.80056 -117.29622 4298 ft 233 kts 314°
2026-04-23 03:23 32.81248 -117.31017 5012 ft 248 kts 314°
2026-04-23 03:24 32.82519 -117.32486 5773 ft 260 kts 315°
2026-04-23 03:24 32.83833 -117.34002 6597 ft 268 kts 315°
2026-04-23 03:24 32.85193 -117.35573 7416 ft 275 kts 315°
2026-04-23 03:24 32.86589 -117.37165 8303 ft 280 kts 315°
2026-04-23 03:25 32.88014 -117.38762 9083 ft 285 kts 315°
2026-04-23 03:25 32.89477 -117.40380 9556 ft 284 kts 315°
2026-04-23 03:25 32.90942 -117.41990 9809 ft 291 kts 315°
2026-04-23 03:25 32.92465 -117.43654 9898 ft 303 kts 315°
2026-04-23 03:26 32.94043 -117.45375 9959 ft 312 kts 315°
2026-04-23 03:26 32.95661 -117.47143 9976 ft 320 kts 315°
2026-04-23 03:26 32.97318 -117.48953 9982 ft 327 kts 315°
2026-04-23 03:26 32.99008 -117.50803 9981 ft 333 kts 315°
2026-04-23 03:27 33.00729 -117.52686 9981 ft 339 kts 315°
2026-04-23 03:27 33.02474 -117.54598 9983 ft 344 kts 315°
2026-04-23 03:27 33.04245 -117.56543 9983 ft 348 kts 315°
2026-04-23 03:27 33.06021 -117.58523 9981 ft 350 kts 312°
2026-04-23 03:28 33.07563 -117.60763 9986 ft 351 kts 305°
2026-04-23 03:28 33.08875 -117.63223 9983 ft 352 kts 297°
2026-04-23 03:28 33.09994 -117.65832 9984 ft 354 kts 296°
2026-04-23 03:28 33.11109 -117.68455 9983 ft 355 kts 296°
2026-04-23 03:29 33.12281 -117.71057 9983 ft 357 kts 301°
2026-04-23 03:29 33.13781 -117.73419 9981 ft 359 kts 309°
2026-04-23 03:29 33.15696 -117.75328 9972 ft 364 kts 328°
2026-04-23 03:29 33.18002 -117.76583 9978 ft 366 kts 334°
2026-04-23 03:30 33.20379 -117.77710 9982 ft 368 kts 336°
2026-04-23 03:30 33.22783 -117.78742 9984 ft 369 kts 337°
2026-04-23 03:30 33.25212 -117.79761 9981 ft 369 kts 337°
2026-04-23 03:30 33.27617 -117.80836 9977 ft 369 kts 335°
2026-04-23 03:31 33.29969 -117.81972 9977 ft 369 kts 334°
2026-04-23 03:31 33.32373 -117.83145 9976 ft 369 kts 335°
2026-04-23 03:31 33.34728 -117.84278 9979 ft 369 kts 335°
2026-04-23 03:31 33.37139 -117.85441 9980 ft 370 kts 335°
2026-04-23 03:32 33.39499 -117.86580 9981 ft 370 kts 334°
2026-04-23 03:32 33.41918 -117.87750 9932 ft 371 kts 334°
2026-04-23 03:32 33.44274 -117.88890 9612 ft 350 kts 335°
2026-04-23 03:32 33.46404 -117.89915 9298 ft 320 kts 334°
2026-04-23 03:33 33.48413 -117.90883 8969 ft 296 kts 334°
2026-04-23 03:33 33.50265 -117.91782 8643 ft 278 kts 334°
2026-04-23 03:33 33.51992 -117.92617 8332 ft 265 kts 334°
2026-04-23 03:33 33.53683 -117.93437 8008 ft 253 kts 334°
2026-04-23 03:34 33.55275 -117.94234 7693 ft 244 kts 334°
2026-04-23 03:34 33.56808 -117.95008 7398 ft 242 kts 334°
2026-04-23 03:34 33.58380 -117.95799 7102 ft 242 kts 335°
2026-04-23 03:34 33.59940 -117.96561 6811 ft 242 kts 335°
2026-04-23 03:35 33.61499 -117.97318 6516 ft 241 kts 336°
2026-04-23 03:35 33.63053 -117.98074 6223 ft 240 kts 336°
2026-04-23 03:35 33.64600 -117.98825 5922 ft 239 kts 336°
2026-04-23 03:35 33.66134 -117.99566 5616 ft 237 kts 336°
2026-04-23 03:36 33.67664 -118.00307 5323 ft 236 kts 336°
2026-04-23 03:36 33.69153 -118.01025 5006 ft 231 kts 336°
2026-04-23 03:36 33.70626 -118.01728 4701 ft 226 kts 336°
2026-04-23 03:36 33.72075 -118.02427 4395 ft 222 kts 337°
2026-04-23 03:37 33.73507 -118.03122 4147 ft 216 kts 336°
2026-04-23 03:37 33.74867 -118.03783 4034 ft 208 kts 336°
2026-04-23 03:37 33.76180 -118.04424 3972 ft 206 kts 337°
2026-04-23 03:37 33.77512 -118.05068 3953 ft 208 kts 337°
2026-04-23 03:38 33.78852 -118.05731 3938 ft 209 kts 335°
2026-04-23 03:38 33.80175 -118.06455 3941 ft 209 kts 334°
2026-04-23 03:38 33.81486 -118.07205 3933 ft 209 kts 334°
2026-04-23 03:38 33.82800 -118.07956 3935 ft 209 kts 333°
2026-04-23 03:39 33.84112 -118.08707 3934 ft 209 kts 333°
2026-04-23 03:39 33.85429 -118.09456 3968 ft 209 kts 334°
2026-04-23 03:39 33.86746 -118.10205 3972 ft 210 kts 334°
2026-04-23 03:39 33.88069 -118.10951 3969 ft 210 kts 334°
2026-04-23 03:40 33.89394 -118.11697 3961 ft 210 kts 334°
2026-04-23 03:40 33.90720 -118.12439 3958 ft 210 kts 334°
2026-04-23 03:40 33.92047 -118.13179 3965 ft 210 kts 334°
2026-04-23 03:40 33.93370 -118.13918 3972 ft 210 kts 334°
2026-04-23 03:41 33.94700 -118.14664 3959 ft 211 kts 334°
2026-04-23 03:41 33.96024 -118.15407 3965 ft 210 kts 334°
2026-04-23 03:41 33.97353 -118.16153 3973 ft 211 kts 334°
2026-04-23 03:41 33.98548 -118.17132 3970 ft 209 kts 308°
2026-04-23 03:42 33.99046 -118.18746 3970 ft 209 kts 271°
2026-04-23 03:42 33.98795 -118.20463 3977 ft 208 kts 264°
2026-04-23 03:42 33.99062 -118.22128 3974 ft 204 kts 298°
2026-04-23 03:42 33.99765 -118.23613 3988 ft 204 kts 300°
2026-04-23 03:43 34.00577 -118.25007 3978 ft 202 kts 319°
2026-04-23 03:43 34.01839 -118.25597 3979 ft 198 kts 356°
2026-04-23 03:43 34.03201 -118.25410 3974 ft 199 kts 20°
2026-04-23 03:43 34.04109 -118.24562 3975 ft 202 kts 52°
2026-04-23 03:44 34.04795 -118.23049 3990 ft 203 kts 63°
2026-04-23 03:44 34.05392 -118.21502 3994 ft 204 kts 64°
2026-04-23 03:44 34.05960 -118.19927 3982 ft 206 kts 65°
2026-04-23 03:44 34.06517 -118.18335 3971 ft 206 kts 65°
2026-04-23 03:45 34.07067 -118.16737 3977 ft 206 kts 66°
2026-04-23 03:45 34.07614 -118.15138 3978 ft 207 kts 65°
2026-04-23 03:45 34.08095 -118.13499 3964 ft 209 kts 79°
2026-04-23 03:45 34.07872 -118.11787 3949 ft 210 kts 111°
2026-04-23 03:46 34.07281 -118.10176 3948 ft 210 kts 117°
2026-04-23 03:46 34.06274 -118.08949 3944 ft 208 kts 154°
2026-04-23 03:46 34.04878 -118.08682 3949 ft 204 kts 192°
2026-04-23 03:46 34.03605 -118.09363 3974 ft 201 kts 218°
2026-04-23 03:47 34.02605 -118.10523 3970 ft 199 kts 229°
2026-04-23 03:47 34.01672 -118.11765 3970 ft 200 kts 231°
2026-04-23 03:47 34.00748 -118.13019 3972 ft 202 kts 228°
2026-04-23 03:47 33.99715 -118.14182 3979 ft 203 kts 224°
2026-04-23 03:48 33.98650 -118.15309 3977 ft 205 kts 223°
2026-04-23 03:48 33.97539 -118.16387 3962 ft 206 kts 214°
2026-04-23 03:48 33.96371 -118.17398 3811 ft 212 kts 231°
2026-04-23 03:48 33.95796 -118.19030 3574 ft 217 kts 261°
2026-04-23 03:49 33.95595 -118.20813 3550 ft 214 kts 264°
2026-04-23 03:49 33.95347 -118.22591 3460 ft 216 kts 258°
2026-04-23 03:49 33.95039 -118.24382 3190 ft 212 kts 263°
2026-04-23 03:49 33.94892 -118.25966 2755 ft 175 kts 266°
2026-04-23 03:50 33.94791 -118.27320 2406 ft 154 kts 267°
2026-04-23 03:50 33.94700 -118.28574 2197 ft 151 kts 266°
2026-04-23 03:50 33.94623 -118.29427 2091 ft 152 kts 265°
2026-04-23 03:50 33.94491 -118.30634 1810 ft 134 kts 265°
2026-04-23 03:51 33.94384 -118.31768 1545 ft 137 kts 265°
2026-04-23 03:51 33.94243 -118.33229 1161 ft 133 kts 264°
2026-04-23 03:51 33.94168 -118.33975 1018 ft 132 kts 264°
2026-04-23 03:51 33.94057 -118.35032 782 ft 124 kts 264°
2026-04-23 03:52 33.93962 -118.36086 574 ft 129 kts 265°
2026-04-23 03:52 33.93852 -118.37167 370 ft 129 kts 265°
2026-04-23 03:52 33.93749 -118.38200 176 ft 119 kts 263°
2026-04-23 03:52 33.93660 -118.39029 124 ft 81 kts 263°
2026-04-23 03:53 33.93609 -118.39530 121 ft 31 kts 264°
2026-04-23 03:53 33.93604 -118.39746 124 ft 25 kts 276°
2026-04-23 03:53 33.93649 -118.39931 123 ft 18 kts 292°
2026-04-23 03:53 33.93667 -118.40024 122 ft 9 kts 267°
2026-04-23 03:54 33.93662 -118.40091 122 ft 10 kts 264°
2026-04-23 03:54 33.93652 -118.40207 120 ft 18 kts 263°
2026-04-23 03:54 33.93632 -118.40387 124 ft 25 kts 264°
2026-04-23 03:54 33.93608 -118.40623 121 ft 31 kts 263°
2026-04-23 03:55 33.93607 -118.40830 122 ft 24 kts 286°
2026-04-23 03:55 33.93732 -118.40906 121 ft 24 kts 356°
2026-04-23 03:55 33.93840 -118.40919 122 ft 20 kts 356°